CEB557 RPLL-RPVM

Flight info

Callsign CEB557
Flight time N/A
Altitude 33000
Route IPAT2R IPATA W25 BATAY BATA3P
Aircraft A339/H-V/N

Departure

Time 2026-05-06 15:19
Airport Ninoy Aquino International Airport (RPLL)

Arrival

Time N/A
Airport Mactan Cebu International Airport (RPVM)
Time Latitude Longitude Altitude Speed Heading
2026-05-06 14:52 14.52092 121.01087 90 ft 0 kts 46°
2026-05-06 15:00 14.52085 121.01080 90 ft 2 kts 46°
2026-05-06 15:01 14.52074 121.01068 90 ft 2 kts 46°
2026-05-06 15:01 14.52064 121.01057 90 ft 2 kts 46°
2026-05-06 15:01 14.52053 121.01046 90 ft 2 kts 46°
2026-05-06 15:01 14.52044 121.01036 90 ft 2 kts 50°
2026-05-06 15:02 14.52037 121.01024 90 ft 2 kts 74°
2026-05-06 15:02 14.52035 121.01010 90 ft 2 kts 90°
2026-05-06 15:02 14.52036 121.00996 90 ft 2 kts 109°
2026-05-06 15:02 14.52043 121.00983 90 ft 2 kts 128°
2026-05-06 15:03 14.52048 121.00977 90 ft 1 kts 136°
2026-05-06 15:03 14.52049 121.00976 90 ft 0 kts 135°
2026-05-06 15:05 14.52046 121.00979 90 ft 2 kts 135°
2026-05-06 15:05 14.52028 121.00997 90 ft 5 kts 135°
2026-05-06 15:05 14.52005 121.01021 90 ft 8 kts 135°
2026-05-06 15:05 14.51968 121.01059 90 ft 3 kts 137°
2026-05-06 15:06 14.51938 121.01060 90 ft 6 kts 201°
2026-05-06 15:06 14.51892 121.01051 90 ft 8 kts 171°
2026-05-06 15:06 14.51839 121.01089 90 ft 11 kts 135°
2026-05-06 15:06 14.51775 121.01155 90 ft 13 kts 135°
2026-05-06 15:07 14.51702 121.01231 90 ft 16 kts 135°
2026-05-06 15:07 14.51624 121.01312 90 ft 17 kts 135°
2026-05-06 15:07 14.51571 121.01366 90 ft 17 kts 135°
2026-05-06 15:07 14.51493 121.01447 90 ft 15 kts 134°
2026-05-06 15:08 14.51415 121.01528 90 ft 15 kts 135°
2026-05-06 15:08 14.51337 121.01608 90 ft 16 kts 135°
2026-05-06 15:08 14.51291 121.01656 90 ft 16 kts 134°
2026-05-06 15:08 14.51285 121.01663 90 ft 16 kts 134°
2026-05-06 15:09 14.51221 121.01729 90 ft 14 kts 135°
2026-05-06 15:09 14.51143 121.01809 90 ft 7 kts 135°
2026-05-06 15:09 14.51101 121.01852 90 ft 9 kts 135°
2026-05-06 15:09 14.51052 121.01903 90 ft 8 kts 136°
2026-05-06 15:10 14.51011 121.01909 90 ft 6 kts 204°
2026-05-06 15:10 14.50974 121.01867 90 ft 10 kts 240°
2026-05-06 15:10 14.50936 121.01798 90 ft 13 kts 240°
2026-05-06 15:10 14.50889 121.01714 90 ft 15 kts 240°
2026-05-06 15:11 14.50841 121.01629 90 ft 17 kts 240°
2026-05-06 15:11 14.50804 121.01562 90 ft 17 kts 240°
2026-05-06 15:11 14.50758 121.01480 90 ft 17 kts 240°
2026-05-06 15:11 14.50699 121.01374 90 ft 18 kts 239°
2026-05-06 15:12 14.50637 121.01267 90 ft 18 kts 242°
2026-05-06 15:12 14.50578 121.01156 90 ft 15 kts 240°
2026-05-06 15:12 14.50531 121.01070 90 ft 16 kts 240°
2026-05-06 15:12 14.50487 121.00992 90 ft 16 kts 240°
2026-05-06 15:13 14.50434 121.00897 90 ft 17 kts 240°
2026-05-06 15:13 14.50370 121.00781 90 ft 17 kts 240°
2026-05-06 15:13 14.50312 121.00676 90 ft 15 kts 240°
2026-05-06 15:13 14.50273 121.00606 90 ft 16 kts 240°
2026-05-06 15:14 14.50200 121.00475 90 ft 11 kts 241°
2026-05-06 15:14 14.50159 121.00401 90 ft 12 kts 240°
2026-05-06 15:14 14.50121 121.00333 90 ft 11 kts 240°
2026-05-06 15:14 14.50080 121.00258 90 ft 12 kts 240°
2026-05-06 15:15 14.50033 121.00174 90 ft 14 kts 240°
2026-05-06 15:15 14.49988 121.00092 90 ft 14 kts 240°
2026-05-06 15:15 14.49954 121.00031 90 ft 10 kts 240°
2026-05-06 15:15 14.49938 121.00003 90 ft 5 kts 240°
2026-05-06 15:16 14.49929 120.99989 90 ft 0 kts 232°
2026-05-06 15:16 14.49927 120.99986 90 ft 1 kts 230°
2026-05-06 15:16 14.49910 120.99974 90 ft 5 kts 206°
2026-05-06 15:16 14.49862 120.99974 90 ft 8 kts 160°
2026-05-06 15:17 14.49811 121.00008 90 ft 7 kts 127°
2026-05-06 15:17 14.49812 121.00059 90 ft 3 kts 58°
2026-05-06 15:17 14.49818 121.00069 90 ft 0 kts 62°
2026-05-06 15:18 14.49828 121.00089 90 ft 10 kts 63°
2026-05-06 15:19 14.49978 121.00362 90 ft 78 kts 60°
2026-05-06 15:19 14.50343 121.01019 90 ft 135 kts 60°
2026-05-06 15:19 14.50881 121.01994 240 ft 169 kts 62°
2026-05-06 15:19 14.51449 121.03022 880 ft 166 kts 60°
2026-05-06 15:20 14.51993 121.04009 1620 ft 158 kts 59°
2026-05-06 15:20 14.52532 121.04986 2114 ft 160 kts 59°
2026-05-06 15:20 14.53100 121.06020 2391 ft 175 kts 59°
2026-05-06 15:20 14.53723 121.07157 2678 ft 191 kts 59°
2026-05-06 15:21 14.54389 121.08380 2971 ft 206 kts 59°
2026-05-06 15:21 14.55126 121.09733 3276 ft 224 kts 59°
2026-05-06 15:21 14.55802 121.11223 3576 ft 243 kts 76°
2026-05-06 15:21 14.55767 121.12984 3909 ft 264 kts 104°
2026-05-06 15:22 14.54998 121.14792 4566 ft 272 kts 115°
2026-05-06 15:22 14.54111 121.16471 5342 ft 273 kts 117°
2026-05-06 15:22 14.53196 121.18139 6100 ft 274 kts 117°
2026-05-06 15:22 14.52253 121.19841 6852 ft 276 kts 117°
2026-05-06 15:23 14.51302 121.21551 7548 ft 278 kts 117°
2026-05-06 15:23 14.50355 121.23247 8235 ft 281 kts 117°
2026-05-06 15:23 14.49391 121.24974 8935 ft 284 kts 117°
2026-05-06 15:23 14.48738 121.26142 9394 ft 286 kts 117°
2026-05-06 15:25 14.42081 121.38252 12710 ft 334 kts 117°
2026-05-06 15:25 14.40977 121.40298 13271 ft 338 kts 117°
2026-05-06 15:25 14.39888 121.42320 13827 ft 342 kts 117°
2026-05-06 15:26 14.38629 121.44353 14383 ft 347 kts 130°
2026-05-06 15:26 14.36750 121.45921 14954 ft 352 kts 144°
2026-05-06 15:26 14.34704 121.47275 15537 ft 355 kts 146°
2026-05-06 15:26 14.32637 121.48623 16092 ft 358 kts 146°
2026-05-06 15:27 14.30544 121.50028 16651 ft 361 kts 144°
2026-05-06 15:27 14.28506 121.51429 17185 ft 364 kts 144°
2026-05-06 15:27 14.26420 121.52887 17738 ft 366 kts 144°
2026-05-06 15:27 14.24315 121.54376 18290 ft 369 kts 144°
2026-05-06 15:28 14.22172 121.55899 18836 ft 373 kts 144°
2026-05-06 15:28 14.20052 121.57412 19374 ft 376 kts 143°
2026-05-06 15:28 14.17888 121.58955 19915 ft 379 kts 143°
2026-05-06 15:28 14.15740 121.60491 20438 ft 381 kts 143°
2026-05-06 15:29 14.13585 121.62031 20949 ft 384 kts 143°
2026-05-06 15:29 14.11431 121.63572 21438 ft 388 kts 143°
2026-05-06 15:29 14.09256 121.65128 21916 ft 391 kts 144°
2026-05-06 15:29 14.07053 121.66702 22393 ft 394 kts 144°
2026-05-06 15:30 14.04835 121.68287 22869 ft 397 kts 144°
2026-05-06 15:30 14.02609 121.69879 23334 ft 400 kts 144°
2026-05-06 15:30 14.00348 121.71496 23789 ft 403 kts 144°
2026-05-06 15:30 13.98052 121.73137 24232 ft 407 kts 144°
2026-05-06 15:31 13.95764 121.74772 24676 ft 410 kts 144°
2026-05-06 15:31 13.93456 121.76421 25123 ft 413 kts 144°
2026-05-06 15:31 13.91342 121.77930 25519 ft 416 kts 144°
2026-05-06 15:32 13.90273 121.78693 25715 ft 417 kts 145°